Weather History for Gage, OK

Change the Weather History Date:

Saturday, October 27, 2012

  Actual Average Record
Temperature  
Mean Temperature 34 °F -  
Max Temperature 52 °F 69 °F 89 °F (1950)
Min Temperature 17 °F 42 °F 17 °F (2012)
Degree Days  
Heating Degree Days 31    
Moisture  
Dew Point 19 °F    
Average Humidity 58    
Maximum Humidity 88    
Minimum Humidity 29    
Precipitation  
Precipitation 0.00 in - - ()
Sea Level Pressure  
Sea Level Pressure 30.32 in    
Wind  
Wind Speed 4 mph (SSE)    
Max Wind Speed 12 mph    
Max Gust Speed -    
Visibility 10 miles    
Events      
Averages and records for this station are not official NWS values.
T = Trace of Precipitation, MM = Missing Value Source: NWS Daily Summary

Daily Weather History Graph

Daily Weather History Graph

Search for Another Location

Airport:

Trip Planner

Search our weather history database for the weather conditions in past years. The results will help you decide how hot, cold, wet, or windy it might be!

Date:

Astronomy

Oct. 27, 2012 Rise Set
Actual Time 7:57 AM CDT 6:47 PM CDT
Civil Twilight 7:31 AM CDT 7:13 PM CDT
Nautical Twilight 7:01 AM CDT 7:44 PM CDT
Astronomical Twilight 6:31 AM CDT 8:14 PM CDT
Moon 5:32 PM CDT (10/27) 5:56 AM CDT (10/27)
Length of Visible Light 11h 42m
Length of Day
10h 49m
Waxing Gibbous, 96% of the Moon is Illuminated
Oct 27
Waxing Gibbous
Oct 29
Full
Nov 6
Last Quarter
Nov 13
New
Nov 20
First Quarter

Hourly Weather History & Observations

Time (CDT) Temp. Windchill Dew Point Humidity Pressure Visibility Wind Dir Wind Speed Gust Speed Precip Events Conditions
12:53 AM 25.0 °F 20.7 °F 18.0 °F 75% 30.44 in 10.0 mi WSW 3.5 mph - N/A   Clear
1:53 AM 25.0 °F - 19.0 °F 78% 30.42 in 10.0 mi Calm Calm - N/A   Clear
2:53 AM 21.9 °F - 17.1 °F 82% 30.41 in 10.0 mi Calm Calm - N/A   Clear
3:53 AM 21.0 °F - 17.1 °F 85% 30.39 in 3.0 mi Calm Calm - N/A   Clear
4:53 AM 21.0 °F - 17.1 °F 85% 30.38 in 10.0 mi Calm Calm - N/A   Clear
5:53 AM 21.0 °F - 17.1 °F 85% 30.39 in 10.0 mi Calm Calm - N/A   Clear
6:53 AM 18.0 °F 11.1 °F 14.0 °F 84% 30.41 in 10.0 mi WSW 4.6 mph - N/A   Clear
7:53 AM 17.1 °F 7.6 °F 14.0 °F 88% 30.42 in 10.0 mi WSW 6.9 mph - N/A   Clear
8:53 AM 23.0 °F 15.8 °F 19.0 °F 85% 30.43 in 10.0 mi West 5.8 mph - N/A   Clear
9:53 AM 33.1 °F - 23.0 °F 66% 30.41 in 10.0 mi Calm Calm - N/A   Clear
10:53 AM 39.9 °F 35.1 °F 24.1 °F 53% 30.38 in 10.0 mi SSE 6.9 mph - N/A   Clear
11:53 AM 44.1 °F 40.1 °F 21.9 °F 42% 30.35 in 10.0 mi South 6.9 mph - N/A   Clear
12:53 PM 46.9 °F - 21.0 °F 36% 30.32 in 10.0 mi ESE 8.1 mph - N/A   Clear
1:53 PM 50.0 °F - 19.9 °F 31% 30.27 in 10.0 mi South 9.2 mph - N/A   Clear
2:53 PM 51.1 °F - 19.9 °F 29% 30.23 in 10.0 mi SSE 5.8 mph - N/A   Clear
3:53 PM 50.0 °F - 19.9 °F 31% 30.22 in 10.0 mi SSE 11.5 mph - N/A   Clear
4:53 PM 50.0 °F - 21.0 °F 32% 30.22 in 10.0 mi SE 4.6 mph - N/A   Clear
5:53 PM 51.1 °F - 21.0 °F 31% 30.20 in 10.0 mi ESE 6.9 mph - N/A   Clear
6:53 PM 46.9 °F - 19.9 °F 34% 30.22 in 10.0 mi East 4.6 mph - N/A   Clear
7:53 PM 39.9 °F 35.1 °F 19.9 °F 45% 30.25 in 10.0 mi ESE 6.9 mph - N/A   Clear
8:53 PM 37.9 °F 31.5 °F 21.0 °F 51% 30.25 in 10.0 mi SSE 9.2 mph - N/A   Clear
9:53 PM 37.9 °F 31.5 °F 21.0 °F 51% 30.25 in 10.0 mi SSE 9.2 mph - N/A   Clear
10:53 PM 37.9 °F 30.9 °F 21.0 °F 51% 30.24 in 10.0 mi South 10.4 mph - N/A   Clear
11:53 PM 35.1 °F - 21.0 °F 57% 30.25 in 10.0 mi Calm Calm - N/A   Clear